Flag for U.S.A. Weather past 2 weeks in New City, New York, U.S.A.

Now
22 °F

Sunny.


Feels Like: 11 °F
Forecast: 14 / 24 °F
Wind: 10 mph from Northwest

Location: Westchester County Airport

Current Time: Feb 27, 2015 at 12:15:19 PM

Latest Report: Feb 27, 2015 at 11:56 AM


Visibility: 10 mi

Pressure: 30.39 "Hg

Humidity: 42%

Dew point: 2 °F

Location of New CityLocation

Historic Weather in New City — Graph

°F

New City temperature yesterday

Maximum temperature yesterday: 25 °F (at 2:56 PM)
Minimum temperature yesterday: 17 °F (at 10:56 PM)
Average temperature yesterday: 21 °F

Past Weeks' High & Low Weather Summary

 TemperatureHumidityPressure
High38 °F (Feb 22, 12:56 PM)93% (Feb 21, 8:56 PM)30.52 "Hg (Feb 21, 8:56 PM)
Low-4 °F (Feb 24, 5:56 AM)25% (Feb 16, 4:56 PM)29.41 "Hg (Feb 15, 12:56 AM)
Average17 °F57%30.03 "Hg
* Reported Feb 12 10:56 AM — Feb 27 10:56 AM, New City, Weather by CustomWeather, © 2015

Note: Actual official high and low records may vary slightly from our data, if they occured in-between our weather recording intervals... More about our weather records

Advertising

New City weather history for previous 24 hours

 ConditionsComfort  
Time TempWeatherWind HumidityBarometerVisibility
10:56 AM
Fri, Feb 27
20 °FSunny.9 mph41%30.40 "Hg10 mi
9:56 AM18 °FSunny.13 mph49%30.39 "Hg10 mi
8:56 AM16 °FSunny.13 mph53%30.38 "Hg10 mi
7:56 AM14 °FSunny.10 mph58%30.35 "Hg10 mi
6:56 AM12 °FPartly sunny.8 mph64%30.33 "Hg10 mi
5:56 AM13 °FOvercast.7 mph59%30.29 "Hg10 mi
4:56 AM13 °FClear.7 mph56%30.26 "Hg10 mi
3:56 AM15 °FPassing clouds.8 mph53%30.24 "Hg10 mi
2:56 AM15 °FClear.8 mph51%30.21 "Hg10 mi
1:56 AM16 °FClear.9 mph49%30.19 "Hg10 mi
12:56 AM16 °FPassing clouds.7 mph51%30.16 "Hg10 mi
11:56 PM
Thu, Feb 26
17 °FPassing clouds.9 mph56%30.16 "Hg10 mi
10:56 PM17 °FClear.7 mph59%30.14 "Hg10 mi
9:56 PM19 °FClear.12 mph62%30.14 "Hg10 mi
8:56 PM20 °FOvercast.9 mph65%30.11 "Hg10 mi
7:56 PM21 °FPassing clouds.9 mph62%30.07 "Hg10 mi
6:56 PM22 °FOvercast.9 mph62%30.06 "Hg10 mi
5:56 PM23 °FOvercast.8 mph63%30.02 "Hg10 mi
4:56 PM24 °FBroken clouds.10 mph60%30.00 "Hg10 mi
3:56 PM24 °FOvercast.8 mph60%29.98 "Hg10 mi
2:56 PM25 °FBroken clouds.9 mph60%29.95 "Hg10 mi
1:56 PM23 °FPartly sunny.10 mph68%29.92 "Hg10 mi
12:56 PM21 °FLight snow. Mostly cloudy.10 mph71%29.94 "Hg1 mi
Weather by CustomWeather, © 2015

See weather overviewHow to use our weather pages